This demonstration page uses our WeatherBlox Daily Observations layout. Learn more.

Left ArrowRight Arrow

40.92501, -98.34201

Hourly Observations for July 12, 2021

Temp ( °F °C ) Dew Point ( °F °C ) Humidity (%) Winds ( mph kmh ) Pressure ( in mb ) Visibility ( mi km ) Precip ( " mm )
12:53 am 00:53 Clear 64 17.8 60 15.6 87 87 Calm 30.08 1019 10 16 0.00 0.00
1:53 am 01:53 Clear 61 16.1 59 15 93 93 W 5 7 30.08 1019 8 13 0.00 0.00
2:53 am 02:53 Clear 61 16.1 58 14.4 90 90 W 3 6 30.07 1018 7 11 0.00 0.00
3:53 am 03:53 Clear 60 15.6 57 13.9 90 90 Calm 30.07 1018 7 11 0.00 0.00
4:53 am 04:53 Clear with Mist and Fog 59 15 56 13.3 90 90 WNW 5 7 30.06 1018 6 10 0.00 0.00
5:53 am 05:53 Clear with Mist and Fog 58 14.4 56 13.3 93 93 E 3 6 30.07 1018 5 8 0.00 0.00
6:53 am 06:53 Sunny with Mist and Fog 59 15 56 13.3 90 90 Calm 30.07 1018 4 6 0.00 0.00
7:53 am 07:53 Hazy 65 18.3 60 15.6 84 84 Calm 30.09 1019 4 6 0.00 0.00
8:53 am 08:53 Hazy 67 19.4 61 16.1 81 81 WNW 3 6 30.09 1019 5 8 0.00 0.00
9:53 am 09:53 Sunny 73 22.8 62 16.7 69 69 W 7 11 30.09 1019 9 14 0.00 0.00
10:53 am 10:53 Sunny 77 25 60 15.6 56 56 W 7 11 30.08 1019 10 16 0.00 0.00
11:53 am 11:53 Sunny 79 26.1 58 14.4 49 49 Calm 30.08 1019 10 16 0.00 0.00
12:53 pm 12:53 Sunny 81 27.2 55 12.8 41 41 NNW 6 9 30.08 1019 10 16 0.00 0.00
1:53 pm 13:53 Sunny 83 28.3 57 13.9 41 41 NNW 10 17 30.06 1018 10 16 0.00 0.00
2:36 pm 14:36 Sunny 82 27.8 56 13.3 41 41 WNW 8 13 29.97 1015 10 16 0.00 0.00
2:53 pm 14:53 Sunny 83 28.3 56 13.3 40 40 undefined N/A 30.05 1018 10 16 0.00 0.00
3:53 pm 15:53 Sunny 82 27.8 56 13.3 41 41 VRB 3 6 30.04 1017 10 16 0.00 0.00
4:53 pm 16:53 Sunny 82 27.8 55 12.8 40 40 SSE 5 7 30.03 1017 10 16 0.00 0.00
5:53 pm 17:53 Sunny 81 27.2 60 15.6 49 49 SSE 7 11 30.03 1017 10 16 0.00 0.00
6:53 pm 18:53 Sunny 80 26.7 60 15.6 51 51 SE 7 11 30.01 1016 10 16 0.00 0.00
7:53 pm 19:53 Sunny 78 25.6 61 16.1 56 56 SSE 7 11 30.01 1016 10 16 0.00 0.00
8:53 pm 20:53 Sunny 74 23.3 63 17.2 69 69 SSE 7 11 30.02 1017 10 16 0.00 0.00
9:53 pm 21:53 Clear 71 21.7 62 16.7 73 73 SSE 7 11 30.03 1017 10 16 0.00 0.00
10:53 pm 22:53 Clear 70 21.1 61 16.1 73 73 SSE 7 11 30.03 1017 10 16 0.00 0.00
11:53 pm 23:53 Clear 69 20.6 61 16.1 76 76 SSE 7 11 30.03 1017 10 16 0.00 0.00

Powered by AerisWeather